Tracking 19909 objects as of 22-Oct-2019
HD Live streaming from Space Station
objects crossing your sky now

SL-3 R/B

Track SL-3 R/B now!
10-day predictions


NORAD ID: 13121
Int'l Code: 1982-027B
Perigee: 527.5 km
Apogee: 566.6 km
Inclination: 81.2 °
Period: 95.4 minutes
Semi major axis: 6918 km
RCS: 5.6899 m2 (large)
Launch date: March 31, 1982
Source: Commonwealth of Independent States (former USSR) (CIS)
Launch site: PLESETSK MISSILE AND SPACE COMPLEX (PKMTR)

Note: This is a ROCKET BODY
aabbcc
Your satellite tracking list
Your tracking list is empty




NASA's NSSDC Master Catalog

Two Line Element Set (TLE):
1 13121U 82027B   19294.89293570 -.00000298 +00000-0 -20339-4 0  9997
2 13121 081.1680 214.5743 0028271 199.5625 160.4518 15.08789483045868
Source of the keplerian elements: AFSPC